HB9MIR-13 Weather Reports


time (UTC)temp
F
wind
direction
speed
knots
gust
knots
rain 1hr
in
rain 24hr
in
rain mn
in
humidity
%
barometer
mb
20260502195742 61 210 0.0 0.0 0.00 0.00 0.00 69 1015.2
20260502194613 62 48 0.0 0.9 0.00 0.00 0.00 65 1015.2
20260502193447 61 222 0.0 0.9 0.00 0.00 0.00 65 1015.1
20260502192319 61 180 1.7 1.7 0.00 0.00 0.00 63 1015.0
20260502191205 62 228 0.0 0.9 0.00 0.00 0.00 62 1014.8
20260502190024 62 198 0.0 0.0 0.00 0.00 0.00 63 1014.5
20260502184855 63 204 0.0 0.0 0.00 0.00 0.00 63 1014.4
20260502183728 64 210 0.0 0.0 0.00 0.00 0.00 60 1014.3
20260502182601 65 192 0.0 0.0 0.00 0.00 0.00 60 1014.3
20260502181434 66 186 0.0 0.0 0.00 0.00 0.00 60 1014.1
20260502180308 67 216 0.0 0.0 0.00 0.00 0.00 59 1014.0
20260502170446 78 54 0.0 1.7 0.00 0.00 0.00 33 1013.8
20260502164047 77 252 0.0 1.7 0.00 0.00 0.00 53 1014.0
20260502162920 78 198 0.0 1.7 0.00 0.00 0.00 39 1013.8
20260502161753 79 224 0.0 1.7 0.00 0.00 0.00 33 1014.1
20260502160625 78 86 0.0 1.7 0.00 0.00 0.00 33 1014.3
20260502151741 79 277 0.0 0.9 0.00 0.00 0.00 36 1015.1
20260502150600 79 48 3.5 3.5 0.00 0.00 0.00 33 1015.1
20260502123710 78 55 0.0 1.7 0.00 0.00 0.00 36 1017.7
20260502122528 78 60 0.9 1.7 0.00 0.00 0.00 36 1018.1
20260502121400 77 198 1.7 2.6 0.00 0.00 0.00 36 1017.8
20260502120234 79 9 0.0 1.7 0.00 0.00 0.00 37 1018.3
20260502115106 78 54 2.6 2.6 0.00 0.00 0.00 34 1018.5
20260502112709 77 210 1.7 2.6 0.00 0.00 0.00 37 1018.8
20260502111540 77 166 2.6 2.6 0.00 0.00 0.00 41 1019.2
20260502110412 75 260 1.7 2.6 0.00 0.00 0.00 40 1019.7
20260502105245 74 193 0.0 2.6 0.00 0.00 0.00 40 1019.8
20260502104028 74 184 2.6 3.5 0.00 0.00 0.00 43 1019.5
20260502102848 73 167 0.0 2.6 0.00 0.00 0.00 41 1020.1
20260502101720 72 174 1.7 2.6 0.00 0.00 0.00 43 1020.2
20260502100554 72 155 1.7 2.6 0.00 0.00 0.00 47 1020.4
20260502090734 65 12 0.0 2.6 0.00 0.00 0.00 52 1021.5
20260502071157 52 90 0.0 0.0 0.00 0.00 0.00 69 1022.1
20260502070030 51 90 0.0 0.0 0.00 0.00 0.00 73 1022.3
20260502064902 50 84 0.0 0.0 0.00 0.00 0.00 72 1022.3
20260502063736 49 30 0.0 0.0 0.00 0.00 0.00 72 1022.3
20260502062521 48 36 0.0 0.0 0.00 0.00 0.00 76 1022.3
20260502061339 47 36 0.0 0.0 0.00 0.00 0.00 80 1022.3
20260502060213 46 228 0.0 0.0 0.00 0.00 0.00 78 1022.4
20260502055044 46 342 0.0 0.0 0.00 0.00 0.00 81 1022.4
20260502053917 45 204 0.0 0.0 0.00 0.00 0.00 80 1022.4
20260502052749 45 234 0.0 0.0 0.00 0.00 0.00 81 1022.4
20260502051621 44 162 0.0 0.0 0.00 0.00 0.00 83 1022.3
20260502050507 44 198 0.0 0.9 0.00 0.00 0.00 82 1022.2
20260502045327 43 240 0.0 0.0 0.00 0.00 0.00 84 1022.2
20260502044159 43 204 0.0 0.0 0.00 0.00 0.00 83 1022.3
20260502043030 43 330 0.0 0.0 0.00 0.00 0.00 84 1022.2
20260502041904 43 174 0.0 0.0 0.00 0.00 0.00 83 1022.3
20260502040647 43 174 0.0 0.0 0.00 0.00 0.00 83 1022.2
20260502035506 43 180 0.0 0.0 0.00 0.00 0.00 82 1022.3
20260502034338 44 138 0.0 0.0 0.00 0.00 0.00 81 1022.2
20260502033210 44 282 0.0 0.0 0.00 0.00 0.00 81 1022.1
20260502032044 44 222 0.0 0.0 0.00 0.00 0.00 80 1022.0
20260502030827 44 216 0.0 0.0 0.00 0.00 0.00 80 1022.0
20260502025645 44 222 0.0 0.0 0.00 0.00 0.00 82 1022.0
20260502024519 43 133 0.0 0.0 0.00 0.00 0.00 83 1022.0
20260502023352 44 246 0.0 0.0 0.00 0.00 0.00 82 1022.1
20260502022225 44 162 0.0 0.0 0.00 0.00 0.00 81 1022.1
20260502021059 44 198 0.0 0.0 0.00 0.00 0.00 82 1022.1
20260502015930 43 42 0.9 0.9 0.00 0.00 0.00 83 1022.1
20260502014816 43 198 0.0 0.0 0.00 0.00 0.00 84 1022.1
20260502013635 43 216 0.0 0.0 0.00 0.00 0.00 83 1022.0
20260502012506 43 228 0.0 0.0 0.00 0.00 0.00 82 1022.1
20260502011339 44 192 0.0 0.0 0.00 0.00 0.00 82 1022.0
20260502010211 44 198 0.0 0.0 0.00 0.00 0.00 80 1022.0
20260502004956 44 300 0.0 0.0 0.00 0.00 0.00 80 1022.0
20260502003816 45 18 0.0 0.0 0.00 0.00 0.00 79 1022.0
20260502002648 45 192 0.0 0.9 0.00 0.00 0.00 78 1022.1
20260502001519 46 216 0.0 0.0 0.00 0.00 0.00 76 1022.1
20260502000351 46 216 0.9 0.9 0.00 0.00 0.00 75 1022.2
20260501235136 46 90 0.0 1.7 0.00 0.00 0.00 75 1022.2
20260501233955 47 162 0.0 0.9 0.00 0.00 0.00 73 1022.1
20260501232826 47 354 0.0 0.0 0.00 0.00 0.00 73 1022.2
20260501231700 47 192 1.7 1.7 0.00 0.00 0.00 73 1022.1
20260501230532 46 0 0.0 0.0 0.00 0.00 0.00 75 1022.1
20260501225405 46 198 0.0 0.9 0.00 0.00 0.00 76 1022.1
20260501224237 47 150 0.0 0.0 0.00 0.00 0.00 75 1022.0
20260501223122 48 168 0.0 0.0 0.00 0.00 0.00 73 1022.2
20260501221941 49 12 0.0 0.0 0.00 0.00 0.00 71 1022.2
20260501220814 48 210 0.0 1.7 0.00 0.00 0.00 71 1022.1
20260501215645 49 186 0.0 0.9 0.00 0.00 0.00 69 1022.0
20260501214518 49 312 0.0 0.0 0.00 0.00 0.00 70 1022.0
20260501213350 50 300 0.0 0.0 0.00 0.00 0.00 70 1022.0
20260501212224 50 30 0.0 0.0 0.00 0.00 0.00 68 1021.8
20260501211108 51 222 0.9 0.9 0.00 0.00 0.00 66 1021.8
20260501205928 51 216 0.0 1.7 0.00 0.00 0.00 66 1021.5
20260501204801 51 270 0.0 0.0 0.00 0.00 0.00 68 1021.5
20260501203634 51 186 0.0 0.0 0.00 0.00 0.00 67 1021.6
20260501202506 51 288 0.0 0.0 0.00 0.00 0.00 68 1021.5
20260501201250 53 222 0.0 0.9 0.00 0.00 0.00 62 1021.5